Location: ?astrovice
(49.6513°N, 14.9287°E)
Time: 09:46:30
(UTC+00:00)

STARLINK-1219 - Pass Details

Date: 09 April 2020
Orbit: 548 x 551 km, 53.0° (Epoch: 07 June)

Event Time Altitude Azimuth Distance (km) Brightness Sun altitude
Rises 18:27:35 0° 293° (WNW) 2,717 9.9 -7.4°
Reaches altitude 10° 18:29:50 10° 289° (WNW) 1,822 8.0 -7.8°
Maximum altitude 18:33:53 56° 211° (SSW) 656 4.1 -8.4°
Enters shadow 18:37:52 10° 134° (SE) 1,793 5.6 -9.0°
